Weather History for Naples, FL

Change the Weather History Date:

Tuesday, August 20, 2013

  Actual Average Record
Temperature  
Mean Temperature 82 °F 83 °F  
Max Temperature 90 °F 91 °F 97 °F (2001)
Min Temperature 74 °F 76 °F 69 °F (1963)
Degree Days  
Heating Degree Days 0 0  
Month to date heating degree days 0 0  
Since 1 June heating degree days 0 0  
Since 1 July heating degree days 0 0  
Cooling Degree Days 17 18  
Month to date cooling degree days 375 360  
Year to date cooling degree days 2505 2454  
Since 1 June cooling degree days 1401 1426  
Growing Degree Days 32 (Base 50)    
Moisture  
Dew Point 75 °F    
Average Humidity 82    
Maximum Humidity 100    
Minimum Humidity 64    
Precipitation  
Precipitation 0.14 in 0.27 in 1.65 in (2001)
Month to date precipitation 4.40 5.51  
Year to date precipitation 32.56 33.45  
Snow  
Snow 0.00 in - - ()
Month to date snowfall 0.0  
Since 1 June snowfall 0.0  
Since 1 July snowfall 0.0  
Snow Depth 0.00 in    
Sea Level Pressure  
Sea Level Pressure 30.02 in    
Wind  
Wind Speed 5 mph (East)    
Max Wind Speed 20 mph    
Max Gust Speed 22 mph    
Visibility 9 miles    
Events Rain , Thunderstorm    
T = Trace of Precipitation, MM = Missing Value Source: NWS Daily Summary

Daily Weather History Graph

Daily Weather History Graph

Search for Another Location

Airport:

Trip Planner

Search our weather history database for the weather conditions in past years. The results will help you decide how hot, cold, wet, or windy it might be!

Date:

Astronomy

Aug. 20, 2013 Rise Set
Actual Time 7:02 AM EDT 7:58 PM EDT
Civil Twilight 6:38 AM EDT 8:22 PM EDT
Nautical Twilight 6:09 AM EDT 8:50 PM EDT
Astronomical Twilight 5:40 AM EDT 9:19 PM EDT
Moon 7:35 PM EDT (8/20) 6:27 AM EDT (8/20)
Length of Visible Light 13h 44m
Length of Day
12h 56m
Full, 100% of the Moon is Illuminated
Aug 20
Full
Aug 20
Full
Aug 28
Last Quarter
Sep 5
New
Sep 12
First Quarter

Hourly Weather History & Observations

Time (EDT) Temp. Heat Index Dew Point Humidity Pressure Visibility Wind Dir Wind Speed Gust Speed Precip Events Conditions
12:53 AM 75.0 °F - 73.9 °F 96% 30.03 in 10.0 mi ENE 5.8 mph - N/A   Clear
1:53 AM 73.9 °F - 73.9 °F 100% 30.01 in 10.0 mi NE 5.8 mph - N/A   Clear
2:53 AM 73.9 °F - 73.9 °F 100% 30.01 in 10.0 mi ENE 5.8 mph - N/A   Clear
3:53 AM 75.0 °F - 73.9 °F 96% 29.99 in 10.0 mi NE 4.6 mph - N/A   Clear
4:53 AM 75.0 °F - 73.9 °F 96% 29.99 in 10.0 mi ENE 5.8 mph - N/A   Clear
5:53 AM 75.0 °F - 75.0 °F 100% 29.99 in 9.0 mi ENE 4.6 mph - N/A   Clear
6:53 AM 75.0 °F - 75.0 °F 100% 30.01 in 9.0 mi ENE 8.1 mph - N/A   Clear
7:53 AM 75.9 °F - 75.9 °F 100% 30.02 in 7.0 mi East 4.6 mph - N/A   Clear
8:53 AM 78.1 °F - 75.9 °F 93% 30.03 in 7.0 mi East 6.9 mph - N/A   Clear
9:53 AM 84.0 °F 93.7 °F 77.0 °F 79% 30.03 in 10.0 mi East 9.2 mph - N/A   Clear
10:53 AM 84.9 °F 95.3 °F 77.0 °F 77% 30.04 in 10.0 mi SE 6.9 mph - N/A   Mostly Cloudy
11:53 AM 86.0 °F 95.1 °F 75.0 °F 70% 30.04 in 10.0 mi ESE 9.2 mph - N/A   Clear
12:53 PM 90.0 °F 101.3 °F 75.9 °F 63% 30.03 in 10.0 mi East 8.1 mph - N/A   Partly Cloudy
1:10 PM 89.6 °F 99.8 °F 75.2 °F 62% 30.04 in 10.0 mi ESE 12.7 mph 16.1 mph N/A Thunderstorm Thunderstorm
1:25 PM 87.8 °F 95.6 °F 73.4 °F 62% 30.04 in 10.0 mi SSE 10.4 mph 17.3 mph N/A Thunderstorm Thunderstorm
1:53 PM 82.9 °F 87.5 °F 71.1 °F 67% 30.03 in 10.0 mi South 8.1 mph - N/A Thunderstorm Partly Cloudy
2:15 PM 78.8 °F - 75.2 °F 89% 30.04 in 1.8 mi SSE 17.3 mph 21.9 mph 0.10 in Rain , Thunderstorm Heavy Thunderstorms and Rain
2:22 PM 77.0 °F - 75.2 °F 94% 30.04 in 3.0 mi ESE 6.9 mph - 0.13 in Rain , Thunderstorm Rain
2:35 PM 78.8 °F - 75.2 °F 89% 30.03 in 3.0 mi Calm Calm - 0.14 in Rain Light Rain
2:53 PM 79.0 °F - 75.0 °F 88% 30.01 in 10.0 mi WSW 3.5 mph - 0.14 in Thunderstorm Scattered Clouds
3:11 PM 80.6 °F 86.2 °F 75.2 °F 84% 30.02 in 10.0 mi Calm Calm - N/A   Scattered Clouds
3:53 PM 82.9 °F 90.2 °F 75.0 °F 77% 30.00 in 10.0 mi ESE 5.8 mph - N/A   Partly Cloudy
4:53 PM 84.0 °F 92.6 °F 75.9 °F 76% 30.00 in 10.0 mi SE 3.5 mph - N/A   Partly Cloudy
5:53 PM 84.0 °F 92.6 °F 75.9 °F 76% 29.99 in 10.0 mi SE 4.6 mph - N/A   Scattered Clouds
6:53 PM 84.0 °F 91.9 °F 75.0 °F 74% 29.99 in 10.0 mi ESE 4.6 mph - N/A   Clear
7:53 PM 82.9 °F 90.2 °F 75.0 °F 77% 30.00 in 10.0 mi Calm Calm - N/A   Scattered Clouds
8:53 PM 81.0 °F 87.3 °F 75.9 °F 85% 30.02 in 10.0 mi NE 4.6 mph - N/A   Mostly Cloudy
9:53 PM 81.0 °F 87.9 °F 77.0 °F 88% 30.04 in 10.0 mi Calm Calm - N/A   Clear
10:53 PM 81.0 °F 88.6 °F 78.1 °F 91% 30.05 in 10.0 mi NE 5.8 mph - N/A   Clear
11:53 PM 80.1 °F 85.8 °F 77.0 °F 90% 30.05 in 10.0 mi ENE 4.6 mph - N/A   Clear